This is the latest recevied weather packets stored in our database for station/object W5COG. If no packets are shown the sender has not sent any weather packets the latest 10 day(s).
| Time | Temp. | Humidity | Pressure | Rain* | Wind** | Luminosity | Snow |
|---|---|---|---|---|---|---|---|
| 1777592126 | 17.78° C | 45% | 1015.6 hPa | 0 mm | - | 88 W/m² | - |
| 1777591826 | 18.33° C | 45% | 1015.6 hPa | 0 mm | - | 86 W/m² | - |
| 1777591526 | 18.33° C | 47% | 1015.6 hPa | 0 mm | - | 96 W/m² | - |
| 1777590627 | 18.33° C | 45% | 1015.5 hPa | 0 mm | - | 163 W/m² | - |
| 1777590327 | 18.33° C | 45% | 1015.4 hPa | 0 mm | - | 140 W/m² | - |
| 1777590026 | 18.89° C | 42% | 1015.3 hPa | 0 mm | - | 117 W/m² | - |
| 1777589726 | 18.89° C | 41% | 1015.3 hPa | 0 mm | - | 101 W/m² | - |
| 1777589426 | 18.89° C | 40% | 1015.3 hPa | 0 mm | - | 96 W/m² | - |
| 1777589126 | 19.44° C | 38% | 1015.3 hPa | 0 mm | - | 97 W/m² | - |
| 1777588826 | 19.44° C | 38% | 1015.2 hPa | 0 mm | - | 168 W/m² | - |
| 1777588526 | 19.44° C | 38% | 1015.3 hPa | 0 mm | - | 445 W/m² | - |
| 1777588226 | 19.44° C | 38% | 1015.3 hPa | 0 mm | - | 471 W/m² | - |
| 1777587927 | 19.44° C | 40% | 1015.3 hPa | 0 mm | - | 499 W/m² | - |
| 1777587626 | 19.44° C | 41% | 1015.3 hPa | 0 mm | - | 480 W/m² | - |
| 1777587326 | 19.44° C | 41% | 1015.4 hPa | 0 mm | - | 504 W/m² | - |
| 1777586426 | 19.44° C | 42% | 1015.4 hPa | 0 mm | - | 540 W/m² | - |
| 1777586126 | 19.44° C | 42% | 1015.5 hPa | 0 mm | - | 575 W/m² | - |
| 1777585826 | 19.44° C | 41% | 1015.5 hPa | 0 mm | - | 588 W/m² | - |
| 1777585526 | 19.44° C | 40% | 1015.6 hPa | 0 mm | - | 610 W/m² | - |
| 1777585226 | 19.44° C | 44% | 1015.6 hPa | 0 mm | - | 582 W/m² | - |
| 1777584926 | 19.44° C | 44% | 1015.7 hPa | 0 mm | - | 604 W/m² | - |
| 1777584026 | 19.44° C | 45% | 1015.8 hPa | 0 mm | - | 677 W/m² | - |
| 1777583726 | 18.89° C | 47% | 1015.9 hPa | 0 mm | - | 717 W/m² | - |
| 1777583426 | 18.33° C | 47% | 1016 hPa | 0 mm | - | 729 W/m² | - |
| 1777583127 | 18.33° C | 45% | 1016 hPa | 0 mm | - | 723 W/m² | - |
* Rain latest hour (hover to see other rain measurements)
** Current wind speed in m/s (hover to see current wind gust speed)